Location: Bednik
(45.3500°N, 16.3833°E)
Time: 07:58:50
(UTC+00:00)

Cosmos 1437 Rocket - Pass Details

Date: 08 August 2020
Orbit: 506 x 563 km, 81.2° (Epoch: 26 September)

Event Time Altitude Azimuth Distance (km) Brightness Sun altitude
Rises 20:28:10 0° 356° (N) 2,642 7.2 -19.8°
Reaches altitude 10° 20:30:25 10° 4° (N) 1,744 6.0 -20.1°
Enters shadow 20:33:56 39° 70° (ENE) 770 3.4 -20.5°
